Location: Beaver Brook Trail
(44.0290°N, 71.8137°W)
Time: 09:26:36
(UTC+00:00)

ARIANE 6 FM1 Upper Stage - Pass Details

Date: 16 October 2024
Orbit: 558 x 596 km, 62.0° (Epoch: 11 November)

Event Time Altitude Azimuth Distance (km) Brightness Sun altitude
Rises 00:59:24 0° 321° (NW) 2,832 7.1 -32.2°
Reaches altitude 10° 01:01:39 10° 324° (NW) 1,932 6.0 -32.6°
Enters shadow 01:03:01 20° 326° (NNW) 1,405 5.1 -32.8°
